FW9253 Weather Reports


Display with metric or nautical units.
time (UTC)temp
F
wind
direction
speed
MPH
gust
MPH
rain 1hr
in
rain 24hr
in
rain mn
in
humidity
%
barometer
mb
20260505124736 80 0 0.0 0.0 0.00 0.00 0.00 2 1012.7
20260505123837 80 0 0.0 0.0 0.00 0.00 0.00 2 1012.7
20260505122937 81 112 0.0 2.0 0.00 0.00 0.00 2 1012.7
20260505122037 81 68 0.0 1.0 0.00 0.00 0.00 2 1012.7
20260505120236 81 0 0.0 0.0 0.00 0.00 0.00 2 1012.7
20260505114436 81 0 0.0 0.0 0.00 0.00 0.00 2 1012.7
20260505113537 82 155 0.0 3.0 0.00 0.00 0.00 2 1013.7
20260505112636 82 0 0.0 0.0 0.00 0.00 0.00 2 1013.7
20260505111736 82 298 0.0 3.0 0.00 0.00 0.00 2 1013.7
20260505110836 82 0 0.0 0.0 0.00 0.00 0.00 2 1013.7
20260505101436 82 292 0.0 1.0 0.00 0.00 0.00 2 1013.7
20260505100536 83 23 0.0 3.0 0.00 0.00 0.00 2 1014.7
20260505094736 82 23 1.0 4.0 0.00 0.00 0.00 2 1013.7
20260505093836 82 203 0.0 2.0 0.00 0.00 0.00 2 1013.7
20260505092936 82 22 0.0 7.0 0.00 0.00 0.00 2 1013.7
20260505092036 82 112 0.0 1.0 0.00 0.00 0.00 2 1013.7
20260505091136 82 216 0.0 6.0 0.00 0.00 0.00 2 1013.7
20260505090236 83 0 0.0 0.0 0.00 0.00 0.00 2 1013.7
20260505085336 82 0 0.0 0.0 0.00 0.00 0.00 2 1013.7
20260505084436 82 0 0.0 0.0 0.00 0.00 0.00 2 1013.7
20260505083535 80 0 0.0 0.0 0.00 0.00 0.00 2 1013.7
20260505082636 80 23 0.0 3.0 0.00 0.00 0.00 2 1013.7
20260505081736 78 0 0.0 0.0 0.00 0.00 0.00 2 1013.7
20260505080836 79 0 0.0 0.0 0.00 0.00 0.00 2 1013.7
20260505075935 80 45 0.0 5.0 0.00 0.00 0.00 2 1013.7
20260505075036 77 45 0.0 5.0 0.00 0.00 0.00 2 1014.7
20260505074135 75 0 0.0 0.0 0.00 0.00 0.00 2 1014.7
20260505073235 75 0 0.0 0.0 0.00 0.00 0.00 2 1014.7
20260505071435 72 0 0.0 0.0 0.00 0.00 0.00 3 1014.7
20260505070535 74 283 0.0 2.0 0.00 0.00 0.00 2 1014.7
20260505064735 77 0 0.0 0.0 0.00 0.00 0.00 2 1014.7
20260505062935 79 292 0.0 1.0 0.00 0.00 0.00 2 1014.7
20260505062035 78 0 0.0 0.0 0.00 0.00 0.00 2 1014.7
20260505060235 76 0 0.0 0.0 0.00 0.00 0.00 2 1014.7
20260505055335 75 0 0.0 0.0 0.00 0.00 0.00 2 1014.7
20260505054435 74 0 0.0 0.0 0.00 0.00 0.00 2 1014.7
20260505053535 73 0 0.0 0.0 0.00 0.00 0.00 2 1014.7
20260505052635 73 0 0.0 0.0 0.00 0.00 0.00 3 1014.7
20260505051735 72 0 0.0 0.0 0.00 0.00 0.00 3 1014.7
20260505040535 66 0 0.0 0.0 0.00 0.00 0.00 25 1013.7
20260505035635 65 0 0.0 0.0 0.00 0.00 0.00 25 1013.7
20260505034735 64 0 0.0 0.0 0.00 0.00 0.00 26 1013.7
20260505033834 62 0 0.0 0.0 0.00 0.00 0.00 33 1013.7
20260505032034 57 0 0.0 0.0 0.00 0.00 0.00 41 1012.7
20260505031134 55 0 0.0 0.0 0.00 0.00 0.00 45 1011.6
20260505030234 54 0 0.0 0.0 0.00 0.00 0.00 46 1011.6
20260505025334 52 0 0.0 0.0 0.00 0.00 0.00 49 1010.6
20260505024434 50 0 0.0 0.0 0.00 0.00 0.00 52 1010.6
20260505023534 49 0 0.0 0.0 0.00 0.00 0.00 53 1010.6
20260505022634 47 0 0.0 0.0 0.00 0.00 0.00 54 1010.6
20260505021734 47 0 0.0 0.0 0.00 0.00 0.00 54 1010.6
20260505020834 47 0 0.0 0.0 0.00 0.00 0.00 54 1011.6
20260505015034 47 0 0.0 0.0 0.00 0.00 0.00 55 1011.6
20260505014134 46 0 0.0 0.0 0.00 0.00 0.00 55 1011.6
20260505013234 46 0 0.0 0.0 0.00 0.00 0.00 55 1011.6
20260505012334 46 0 0.0 0.0 0.00 0.00 0.00 55 1011.6
20260505011434 46 0 0.0 0.0 0.00 0.00 0.00 55 1011.6
20260505010534 46 0 0.0 0.0 0.00 0.00 0.00 55 1011.6
20260505003834 47 0 0.0 0.0 0.00 0.00 0.00 54 1011.6
20260505002934 46 0 0.0 0.0 0.00 0.00 0.00 55 1011.6
20260505002034 46 181 0.0 1.0 0.00 0.00 0.00 54 1011.6
20260504235334 46 0 0.0 0.0 0.00 0.00 0.00 55 1011.6
20260504234433 46 0 0.0 0.0 0.00 0.00 0.00 54 1011.6
20260504233533 46 0 0.0 0.0 0.00 0.00 0.00 54 1011.6
20260504232633 47 0 0.0 0.0 0.00 0.00 0.00 54 1011.6
20260504231733 47 0 0.0 0.0 0.00 0.00 0.00 55 1011.6
20260504230833 47 0 0.0 0.0 0.00 0.00 0.00 54 1011.6
20260504225033 47 0 0.0 0.0 0.00 0.00 0.00 54 1011.6
20260504224133 47 0 0.0 0.0 0.00 0.00 0.00 53 1011.6
20260504222333 47 0 0.0 0.0 0.00 0.00 0.00 53 1011.6
20260504221433 47 0 0.0 0.0 0.00 0.00 0.00 53 1011.6
20260504220533 47 0 0.0 0.0 0.00 0.00 0.00 53 1011.6
20260504215633 47 0 0.0 0.0 0.00 0.00 0.00 52 1011.6
20260504214733 47 0 0.0 0.0 0.00 0.00 0.00 52 1011.6
20260504213833 47 0 0.0 0.0 0.00 0.00 0.00 52 1011.6
20260504212933 48 0 0.0 0.0 0.00 0.00 0.00 52 1011.6
20260504212033 48 0 0.0 0.0 0.00 0.00 0.00 52 1011.6
20260504211133 48 0 0.0 0.0 0.00 0.00 0.00 51 1011.6
20260504205341 48 0 0.0 0.0 0.00 0.00 0.00 51 1011.6
20260504203541 48 0 0.0 0.0 0.00 0.00 0.00 51 1012.7
20260504201741 49 0 0.0 0.0 0.00 0.00 0.00 50 1011.6
20260504200841 49 0 0.0 0.0 0.00 0.00 0.00 49 1011.6
20260504195941 49 0 0.0 0.0 0.00 0.00 0.00 49 1011.6
20260504195041 49 0 0.0 0.0 0.00 0.00 0.00 48 1011.6
20260504194141 49 0 0.0 0.0 0.00 0.00 0.00 48 1011.6
20260504193241 49 0 0.0 0.0 0.00 0.00 0.00 48 1011.6
20260504185641 50 0 0.0 0.0 0.00 0.00 0.00 46 1010.6
20260504184741 50 0 0.0 0.0 0.00 0.00 0.00 44 1010.6
20260504182040 51 0 0.0 0.0 0.00 0.00 0.00 41 1011.6
20260504181140 51 0 0.0 0.0 0.00 0.00 0.00 40 1011.6
20260504180241 51 0 0.0 0.0 0.00 0.00 0.00 40 1011.6
20260504175340 52 0 0.0 0.0 0.00 0.00 0.00 40 1011.6
20260504174440 52 0 0.0 0.0 0.00 0.00 0.00 39 1011.6
20260504173540 53 0 0.0 0.0 0.00 0.00 0.00 39 1011.6
20260504172640 53 0 0.0 0.0 0.00 0.00 0.00 38 1011.6
20260504170840 54 0 0.0 0.0 0.00 0.00 0.00 36 1012.7
20260504151140 71 292 0.0 1.0 0.00 0.00 0.00 3 1012.7
20260504150240 71 270 0.0 3.0 0.00 0.00 0.00 3 1012.7